Overview Statistics Trail Chart Weather Telemetry Raw packets
 

This is the latest recevied weather packets stored in our database for station/object MeshWX-1. If no packets are shown the sender has not sent any weather packets the latest 10 day(s).

<< 11 12 13 14 15 16 17 >>
Time Temp. Humidity Pressure Rain* Wind** Luminosity Snow
1788389598 22.22° C 37% 998.8 hPa - - - -
1788387750 22.22° C 38% 998.8 hPa - - - -
1788387623 22.22° C 38% 998.8 hPa - - - -
1788387570 22.22° C 38% 998.8 hPa - - - -
1788387528 22.22° C 38% 998.8 hPa - - - -
1788385590 22.22° C 38% 998.8 hPa - - - -
1788385404 22.22° C 38% 998.8 hPa - - - -
1788383550 23.33° C 36% 999 hPa - - - -
1788383369 24.44° C 34% 999.2 hPa - - - -
1788381449 24.44° C 34% 999.2 hPa - - - -
1788381317 24.44° C 34% 999.2 hPa - - - -
1788381269 24.44° C 30% 998.9 hPa - - - -
1788379337 24.44° C 30% 998.9 hPa - - - -
1788379299 26.11° C 26% 998.6 hPa - - - -
1788379288 26.11° C 26% 998.6 hPa - - - -
1788377369 26.11° C 26% 998.6 hPa - - - -
1788377339 26.11° C 26% 998.6 hPa - - - -
1788377249 26.11° C 23% 998.5 hPa - - - -
1788375323 26.11° C 23% 998.5 hPa - - - -
1788375302 27.22° C 22% 998.5 hPa - - - -
1788375209 27.22° C 22% 998.5 hPa - - - -
1788373271 27.22° C 22% 998.5 hPa - - - -
1788373229 27.78° C 21% 998.1 hPa - - - -
1788373108 27.78° C 21% 998.1 hPa - - - -
1788371236 27.78° C 21% 998.1 hPa - - - -

* Rain since midnight (hover to see other rain measurements)
** Current wind speed in m/s (hover to see current wind gust speed)